Regional Weather Roundup
Issued by NWS Charleston, SC

Current Version | Previous Version | Graphics & Text | Print | Product List | Glossary On
Versions: 1 2 3 4 5 6 7 8 9 10 11 12 13 14 15 16 17 18 19 20 21 22 23 24 25 26 27 28 29 30 31 32 33 34 35 36 37 38 39 40 41 42 43 44 45 46 47 48 49 50
991 ASUS42 KCHS 230912 RWRCHS REGIONAL WEATHER ROUNDUP NATIONAL WEATHER SERVICE CHARLESTON SC 400 AM EST MON JAN 23 2017 NOTE: "FAIR" INDICATES FEW OR NO CLOUDS BELOW 12,000 FEET WITH NO SIGNIFICANT WEATHER AND/OR OBSTRUCTIONS TO VISIBILITY. NOT ALL STATIONS ARE QUALITY CONTROLLED. USE DATA WITH CAUTION... ESPECIALLY DEWPOINT OBSERVATIONS. SCZ027-030-031-034>040-042>050-231000- ...SOUTHEAST SOUTH CAROLINA... CITY SKY/WX TMP DP RH WIND PRES REMARKS N CHARLESTON CLEAR 52 47 83 SW3 29.31F WATERFRONT PRK N/A 56 51 84 VRB3 29.31F MOUNT PLEASANT FAIR 55 50 82 CALM 29.32F JOHNS ISLAND FAIR 54 50 87 CALM 29.32F PINOPOLIS N/A 55 52 88 SW8 29.22F MONCKS CORNER FAIR 50 46 87 SW3 29.30F SUMMERVILLE FAIR 52 52 100 SE3 29.31F BEAUFORT MCAS CLEAR 53 49 86 S6 29.30F BEAUFORT ARPT FAIR 54 50 87 S6 29.31F HILTON HEAD IS CLEAR 52 48 87 SW5 29.33F WALTERBORO SUNNY 50 48 93 S3 29.31F ALLENDALE FAIR 52 50 93 VRB5 29.28F ...SOUTHERN MIDLANDS AND PEE DEE... CITY SKY/WX TMP DP RH WIND PRES REMARKS GEORGETOWN FAIR 52 48 87 SW8 29.31F KINGSTREE FAIR 52 46 82 S3 29.29F ORANGEBURG PTCLDY 51 48 89 SW6 29.28F BARNWELL FAIR 52 50 93 S3 29.28F AIKEN FAIR 48 45 87 SW8 29.28F MANNING FAIR 52 45 76 SW6 29.28F COLUMBIA PTCLDY 52 47 83 S5 29.25F SUMTER CLEAR 51 47 84 SW8 29.24F FLORENCE PTCLDY 55 49 80 SW10G21 29.26S MYRTLE BEACH CLEAR 55 46 71 W14 29.31R N MYRTLE BEACH CLEAR 57 49 74 SW17G29 29.27R $$ GAZ063-065-086>088-099>101-113>116-118-119-134>141-150-231000- ...SOUTHEAST GEORGIA... CITY SKY/WX TMP DP RH WIND PRES REMARKS SAVANNAH ARPT CLEAR 54 48 80 SW12 29.32F HUNTER AAF CLEAR 54 52 95 SW9 29.30F FORT STEWART CLEAR 55 48 77 SW8 29.31F STATESBORO PTCLDY 55 51 86 SW6 29.29F SYLVANIA MOSUNNY N/A N/A N/A SW3 29.30F CLAXTON FAIR N/A N/A N/A SW3 29.31F ...CSRA...CENTRAL AND FAR SOUTHEAST GEORGIA... CITY SKY/WX TMP DP RH WIND PRES REMARKS THOMSON CLOUDY 52 50 91 SW6 29.29F AUGUSTA-BUSH PTCLDY 51 46 83 S6 29.26F AUGUSTA-DANIEL PTCLDY 52 45 77 S8 29.26F SWAINSBORO FAIR 52 48 87 SW6 29.29F VIDALIA CLEAR 54 52 94 SW9 29.31F EASTMAN FAIR 54 41 62 SW6 29.32F HAZLEHURST FAIR 54 52 92 SW8 29.31F ALMA CLEAR 52 50 93 S5 29.34F WAYCROSS CLEAR 54 54 100 SW7 29.36F JESUP FAIR 54 50 87 SW3 29.36F BAXLEY FAIR 55 52 88 SW3 29.33F BRUNSWICK CLEAR 55 54 94 SW10 29.38S SAINT SIMONS CLEAR 57 52 83 SW13 29.37F $$ SCZ027-028-034-036>038-045-046-048>050-GAZ119-141-231000- ...LAKE AND SUPPLEMENTAL COASTAL OBSERVATIONS... STATION/POSITION TIME TEMP WIND PRES WAVE SWELL AIR SEA DIR/SP/G HT/PER HT/PER/DIR (UTC) (F) (DEG/KT/KT) (MB) (FT/S) (FT/S/D) WINYAH BAY 0745 59 250/ 14 992.0 LAKE MURRAY 0820 54 230/ 11/ 18 990.5 ACE BASIN NERRS 0745 55 CALM 993.0 FORT PULASKI 0848 57 59 250/ 11/ 17 993.2F SAPELO ISLAND 0800 58 230/ 14 995.0 $$ ANZ835-935-AMZ111-154-330-350-352-354-370-450-454-472-231000- ...C-MAN AND BUOY OBSERVATIONS... STATION/POSITION TIME TEMP WIND PRES WAVE SWELL AIR SEA DIR/SP/G HT/PER HT/PER/DIR (UTC) (F) (DEG/KT/KT) (MB) (FT/S) (FT/S/D) BUOY 41004 0750 63 65 260/ 27/ 35 992.3 11/ 8 5/300/16 BUOY 41008 0750 61 60 230/ 19/ 25 993.6 5/ 7 3/120/ 7 FOLLY BEACH CMAN 0800 56 240/ 6/ 9 993.9F CAPERS NEARSHORE 0808 57 56 260/ 14/ 17 992.9S FRIPP NEARSHORE 0808 59 58 240/ 12/ 16 993.0F STATION/POSITION TIME TEMP WIND PRES WAVE SWELL AIR SEA DIR/SP/G HT/PER HT/PER/DIR (UTC) (F) (DEG/KT/KT) (MB) (FT/S) (FT/S/D) 5E ST. MARYS GA 0830 62 N/A 3/ 6 2/110/13 FRYING PAN BUOY 0850 66 69 230/ 29/ 37 991.5F 10/ 8 BUOY 41025 0850 72 72 160/ 23/ 31 992.8F 6/ 8 3/170/ 8 CAPE LOOKOUT NC 0800 67 150/ 25/ 26 991.0F BUOY 41002 0850 74 71 180/ 27/ 33 996.3F 13/ 9 7/ 40/13 BUOY 41010 NOT AVBL ST AUGUSTINE FL 0900 59 65 250/ 7/ 8 997.6F $$

USA.gov is the U.S. government's official web portal to all federal, state and local government web resources and services.